World > North America > United States > New York > Millwood  

Millwood, NY Hourly Weather Updates

Feedback E-mail the Weather

Quick Clicks

Millwood, NY Weather Maps

°F °C°F °C
Millwood Weather Map
UTC Time: 4/14/2024, 16:31
Your Time:

Millwood, NY Regional Weather

Expires:202404141700;;733523
ASUS41 KALY 141610
RWRALY

NEW YORK STATE HOURLY WEATHER ROUNDUP
NATIONAL WEATHER SERVICE ALBANY NY
1200 PM EDT SUN APR 14 2024

NOTE: "FAIR" INDICATES FEW OR NO CLOUDS BELOW 12,000 FEET WITH NO
SIGNIFICANT WEATHER AND/OR NO OBSTRUCTIONS TO VISIBILITY.


NYZ032-033-038>043-046>054-057>066-NYZ062>081-082-084-141700-
EAST

  
CITY           SKY/WX    TMP DP  RH WIND       PRES   REMARKS
ALBANY         LGT RAIN  51  36  56 S7        29.85S                  
GLENS FALLS    LGT RAIN  46  37  71 S9        29.82R                  
POUGHKEEPSIE   CLOUDY    56  36  47 SW6       29.87F                  
NEWBURGH       MOSUNNY   55  37  50 W8        29.87F                  
MONTGOMERY     CLOUDY    55  36  48 MISG      29.85F                  
WHITE PLAINS   CLOUDY    61  34  36 W9G21     29.88F                  
ISLIP          PTSUNNY   62  34  35 SW21G30   29.91F                  
NEW YORK CITY  PTSUNNY   64  33  31 SW12G20   29.89F                  
CENTRAL PARK   PTSUNNY   66  33  29 SW8G21    29.92F                  
$$


SKY/WX - Weather  TMP - Temperature  DP - Dew Point  RH - Humidity
WIND - Wind Direction/Speed PRES - Barometric Pressure VSB - Visibility
WCI - Wind Chill Index E13G22 Wind - East Wind 13 mph/Gusts of 22 mph

Trending Headlines

Trending Entertainment Headlines

Millwood Radar Loop

Use the map search tool if you want to place a location marker on the radar map...

Millwood Quick Facts

National Two Day Weather Forecast


E-mail the Millwood Weather Forecast

Voice your opinion or tell us about page issues...